This is the latest recevied weather packets stored in our database for station/object NA9VY-8. If no packets are shown the sender has not sent any weather packets the latest 10 day(s).
| Time | Temp. | Humidity | Pressure | Rain* | Wind** | Luminosity | Snow |
|---|---|---|---|---|---|---|---|
| 1777925600 | 26.11° C | 45% | 1008.9 hPa | 0 mm | - | 201 W/m² | - |
| 1777925297 | 26.11° C | 46% | 1008.9 hPa | 0 mm | - | 409 W/m² | - |
| 1777924993 | 25.56° C | 46% | 1009.1 hPa | 0 mm | - | 533 W/m² | - |
| 1777924689 | 25.56° C | 50% | 1009.3 hPa | 0 mm | - | 218 W/m² | - |
| 1777924385 | 25.56° C | 49% | 1009.2 hPa | 0 mm | - | 186 W/m² | - |
| 1777924082 | 25.56° C | 50% | 1009.1 hPa | 0 mm | - | 648 W/m² | - |
| 1777923779 | 25° C | 50% | 1009.3 hPa | 0 mm | - | 713 W/m² | - |
| 1777923475 | 25° C | 52% | 1009.2 hPa | 0 mm | - | 648 W/m² | - |
| 1777923172 | 25.56° C | 53% | 1009.3 hPa | 0 mm | - | 630 W/m² | - |
| 1777922871 | 25.56° C | 51% | 1009.5 hPa | 0 mm | - | 547 W/m² | - |
| 1777922569 | 25.56° C | 52% | 1009.7 hPa | 0 mm | - | 630 W/m² | - |
| 1777922267 | 25° C | 53% | 1009.7 hPa | 0 mm | - | 98 W/m² | - |
| 1777921963 | 25° C | 53% | 1009.7 hPa | 0 mm | - | 486 W/m² | - |
| 1777921659 | 25° C | 50% | 1009.9 hPa | 0 mm | - | 301 W/m² | - |
| 1777921356 | 25° C | 54% | 1010 hPa | 0 mm | - | 664 W/m² | - |
| 1777921052 | 25° C | 55% | 1010.1 hPa | 0 mm | - | 684 W/m² | - |
| 1777920749 | 25° C | 56% | 1010.2 hPa | 0 mm | - | 692 W/m² | - |
| 1777920445 | 25° C | 55% | 1010.3 hPa | 0 mm | - | 697 W/m² | - |
| 1777920141 | 23.89° C | 61% | 1010.6 hPa | 0 mm | - | 639 W/m² | - |
| 1777919837 | 23.33° C | 59% | 1010.7 hPa | 0 mm | - | 454 W/m² | - |
| 1777919534 | 22.78° C | 57% | 1010.7 hPa | 0 mm | - | 262 W/m² | - |
| 1777919233 | 22.78° C | 59% | 1011 hPa | 0 mm | - | 232 W/m² | - |
| 1777918929 | 22.78° C | 59% | 1011.1 hPa | 0 mm | - | 228 W/m² | - |
| 1777918627 | 22.78° C | 62% | 1011.2 hPa | 0 mm | - | 232 W/m² | - |
| 1777918324 | 23.33° C | 60% | 1011.2 hPa | 0 mm | - | 283 W/m² | - |
* Rain latest hour (hover to see other rain measurements)
** Current wind speed in m/s (hover to see current wind gust speed)